Torna al catalogo

STARLINK-3819

AttivoComunicazioniVLEO
NORAD 52349·PAYLOAD·🇺🇸 United States

Lanciato Apr 29, 2022 da Cape Canaveral Space Force Station

Loading…

Prossimi Passaggi (prossime 24 ore)

TLE

AggiornatoSource: CelesTrak SupGP

Epoca: Sep 15, 2026, 02:50 UTC

1 52349C 22045U   26258.11854167 -.00030867  00000+0 -88340-3 0  2581
2 52349  53.1590  54.7135 0001275  86.8700  97.2536 15.35404296    19

Traccia STARLINK-3819 in tempo reale con AllMySat

Download on the App Store